Year,Month,Day,Hour,Minute,Value (Times are PST for temperature in C)
2009,05,28,00,00,9.70
2009,05,28,00,01,9.70
2009,05,28,00,02,9.70
2009,05,28,00,03,9.70
2009,05,28,00,04,9.60
2009,05,28,00,05,9.60
2009,05,28,00,06,9.60
2009,05,28,00,07,9.60
2009,05,28,00,08,9.60
2009,05,28,00,09,9.60
2009,05,28,00,10,9.60
2009,05,28,00,11,9.60
2009,05,28,00,12,9.60
2009,05,28,00,13,9.60
2009,05,28,00,14,9.60
2009,05,28,00,15,9.60
2009,05,28,00,16,9.60
2009,05,28,00,17,9.60
2009,05,28,00,18,9.60
2009,05,28,00,19,9.60
2009,05,28,00,20,9.60
2009,05,28,00,21,9.60
2009,05,28,00,22,9.50
2009,05,28,00,23,9.50
2009,05,28,00,24,9.50
2009,05,28,00,25,9.50
2009,05,28,00,26,9.50
2009,05,28,00,27,9.50
2009,05,28,00,28,9.50
2009,05,28,00,29,9.50
2009,05,28,00,30,9.60
2009,05,28,00,31,9.60
2009,05,28,00,32,9.60
2009,05,28,00,33,9.60
2009,05,28,00,34,9.60
2009,05,28,00,35,9.60
2009,05,28,00,36,9.60
2009,05,28,00,37,9.60
2009,05,28,00,38,9.70
2009,05,28,00,39,9.70
2009,05,28,00,40,9.70
2009,05,28,00,41,9.70
2009,05,28,00,42,9.70
2009,05,28,00,43,9.70
2009,05,28,00,44,9.70
2009,05,28,00,45,9.70
2009,05,28,00,46,9.70
2009,05,28,00,47,9.60
2009,05,28,00,48,9.60
2009,05,28,00,49,9.50
2009,05,28,00,50,9.50
2009,05,28,00,51,9.50
2009,05,28,00,52,9.50
2009,05,28,00,53,9.50
2009,05,28,00,54,9.50
2009,05,28,00,55,9.40
2009,05,28,00,56,9.40
2009,05,28,00,57,9.40
2009,05,28,00,58,9.30
2009,05,28,00,59,9.30
2009,05,28,01,00,9.30
2009,05,28,01,01,9.20
2009,05,28,01,02,9.20
2009,05,28,01,03,9.20
2009,05,28,01,04,9.10
2009,05,28,01,05,9.10
2009,05,28,01,06,9.00
2009,05,28,01,07,9.00
2009,05,28,01,08,9.00
2009,05,28,01,09,8.90
2009,05,28,01,10,8.90
2009,05,28,01,11,8.80
2009,05,28,01,12,8.80
2009,05,28,01,13,8.70
2009,05,28,01,14,8.70
2009,05,28,01,15,8.70
2009,05,28,01,16,8.70
2009,05,28,01,17,8.70
2009,05,28,01,18,8.70
2009,05,28,01,19,8.70
2009,05,28,01,20,8.80
2009,05,28,01,21,8.80
2009,05,28,01,22,8.80
2009,05,28,01,23,8.90
2009,05,28,01,24,8.90
2009,05,28,01,25,8.90
2009,05,28,01,26,8.90
2009,05,28,01,27,8.90
2009,05,28,01,28,8.90
2009,05,28,01,29,8.90
2009,05,28,01,30,8.90
2009,05,28,01,31,8.90
2009,05,28,01,32,8.90
2009,05,28,01,33,8.90
2009,05,28,01,34,8.90
2009,05,28,01,35,8.80
2009,05,28,01,36,8.80
2009,05,28,01,37,8.80
2009,05,28,01,38,8.80
2009,05,28,01,39,8.80
2009,05,28,01,40,8.80
2009,05,28,01,41,8.70
2009,05,28,01,42,8.70
2009,05,28,01,43,8.70
2009,05,28,01,44,8.70
2009,05,28,01,45,8.70
2009,05,28,01,46,8.70
2009,05,28,01,47,8.70
2009,05,28,01,48,8.70
2009,05,28,01,49,8.60
2009,05,28,01,50,8.60
2009,05,28,01,51,8.60
2009,05,28,01,52,8.60
2009,05,28,01,53,8.60
2009,05,28,01,54,8.60
2009,05,28,01,55,8.60
2009,05,28,01,56,8.60
2009,05,28,01,57,8.60
2009,05,28,01,58,8.60
2009,05,28,01,59,8.70
2009,05,28,02,00,8.70
2009,05,28,02,01,8.70
2009,05,28,02,02,8.70
2009,05,28,02,03,8.80
2009,05,28,02,04,8.90
2009,05,28,02,05,8.90
2009,05,28,02,06,8.90
2009,05,28,02,07,9.00
2009,05,28,02,08,9.00
2009,05,28,02,09,9.00
2009,05,28,02,10,9.10
2009,05,28,02,11,9.20
2009,05,28,02,12,9.20
2009,05,28,02,13,9.20
2009,05,28,02,14,9.20
2009,05,28,02,15,9.30
2009,05,28,02,16,9.30
2009,05,28,02,17,9.30
2009,05,28,02,18,9.30
2009,05,28,02,19,9.40
2009,05,28,02,20,9.40
2009,05,28,02,21,9.50
2009,05,28,02,22,9.50
2009,05,28,02,23,9.50
2009,05,28,02,24,9.50
2009,05,28,02,25,9.50
2009,05,28,02,26,9.60
2009,05,28,02,27,9.60
2009,05,28,02,28,9.60
2009,05,28,02,29,9.70
2009,05,28,02,30,9.70
2009,05,28,02,31,9.70
2009,05,28,02,32,9.70
2009,05,28,02,33,9.70
2009,05,28,02,34,9.70
2009,05,28,02,35,9.60
2009,05,28,02,36,9.60
2009,05,28,02,37,9.60
2009,05,28,02,38,9.60
2009,05,28,02,39,9.50
2009,05,28,02,40,9.50
2009,05,28,02,41,9.40
2009,05,28,02,42,9.40
2009,05,28,02,43,9.40
2009,05,28,02,44,9.40
2009,05,28,02,45,9.40
2009,05,28,02,46,9.40
2009,05,28,02,47,9.40
2009,05,28,02,48,9.30
2009,05,28,02,49,9.20
2009,05,28,02,50,9.20
2009,05,28,02,51,9.20
2009,05,28,02,52,9.20
2009,05,28,02,53,9.20
2009,05,28,02,54,9.20
2009,05,28,02,55,9.20
2009,05,28,02,56,9.20
2009,05,28,02,57,9.20
2009,05,28,02,58,9.20
2009,05,28,02,59,9.20
2009,05,28,03,00,9.20
2009,05,28,03,01,9.10
2009,05,28,03,02,9.10
2009,05,28,03,03,9.10
2009,05,28,03,04,9.10
2009,05,28,03,05,9.10
2009,05,28,03,06,9.10
2009,05,28,03,07,9.10
2009,05,28,03,08,9.10
2009,05,28,03,09,9.10
2009,05,28,03,10,9.20
2009,05,28,03,11,9.20
2009,05,28,03,12,9.20
2009,05,28,03,13,9.40
2009,05,28,03,14,9.40
2009,05,28,03,15,9.50
2009,05,28,03,16,9.70
2009,05,28,03,17,9.70
2009,05,28,03,18,9.80
2009,05,28,03,19,9.90
2009,05,28,03,20,10.00
2009,05,28,03,21,10.20
2009,05,28,03,22,10.20
2009,05,28,03,23,10.30
2009,05,28,03,24,10.40
2009,05,28,03,25,10.40
2009,05,28,03,26,10.40
2009,05,28,03,27,10.50
2009,05,28,03,28,10.60
2009,05,28,03,29,10.60
2009,05,28,03,30,10.70
2009,05,28,03,31,10.70
2009,05,28,03,32,10.80
2009,05,28,03,33,10.80
2009,05,28,03,34,10.80
2009,05,28,03,35,10.70
2009,05,28,03,36,10.70
2009,05,28,03,37,10.60
2009,05,28,03,38,10.60
2009,05,28,03,39,10.50
2009,05,28,03,40,10.40
2009,05,28,03,41,10.30
2009,05,28,03,42,10.20
2009,05,28,03,43,10.20
2009,05,28,03,44,10.10
2009,05,28,03,45,10.10
2009,05,28,03,46,10.00
2009,05,28,03,47,9.90
2009,05,28,03,48,9.90
2009,05,28,03,49,9.80
2009,05,28,03,50,9.80
2009,05,28,03,51,9.70
2009,05,28,03,52,9.70
2009,05,28,03,53,9.70
2009,05,28,03,54,9.70
2009,05,28,03,55,9.70
2009,05,28,03,56,9.70
2009,05,28,03,57,9.70
2009,05,28,03,58,9.60
2009,05,28,03,59,9.60
2009,05,28,04,00,9.60
2009,05,28,04,01,9.50
2009,05,28,04,02,9.50
2009,05,28,04,03,9.50
2009,05,28,04,04,9.50
2009,05,28,04,05,9.40
2009,05,28,04,06,9.40
2009,05,28,04,07,9.40
2009,05,28,04,08,9.40
2009,05,28,04,09,9.50
2009,05,28,04,10,9.50
2009,05,28,04,11,9.50
2009,05,28,04,12,9.50
2009,05,28,04,13,9.50
2009,05,28,04,14,9.50
2009,05,28,04,15,9.40
2009,05,28,04,16,9.40
2009,05,28,04,17,9.30
2009,05,28,04,18,9.30
2009,05,28,04,19,9.30
2009,05,28,04,20,9.30
2009,05,28,04,21,9.20
2009,05,28,04,22,9.20
2009,05,28,04,23,9.20
2009,05,28,04,24,9.20
2009,05,28,04,25,9.20
2009,05,28,04,26,9.20
2009,05,28,04,27,9.20
2009,05,28,04,28,9.20
2009,05,28,04,29,9.20
2009,05,28,04,30,9.20
2009,05,28,04,31,9.20
2009,05,28,04,32,9.20
2009,05,28,04,33,9.10
2009,05,28,04,34,9.10
2009,05,28,04,35,9.10
2009,05,28,04,36,9.10
2009,05,28,04,37,9.10
2009,05,28,04,38,9.10
2009,05,28,04,39,9.00
2009,05,28,04,40,9.00
2009,05,28,04,41,9.00
2009,05,28,04,42,8.90
2009,05,28,04,43,8.90
2009,05,28,04,44,8.90
2009,05,28,04,45,8.80
2009,05,28,04,46,8.80
2009,05,28,04,47,8.70
2009,05,28,04,48,8.70
2009,05,28,04,49,8.70
2009,05,28,04,50,8.70
2009,05,28,04,51,8.70
2009,05,28,04,52,8.70
2009,05,28,04,53,8.70
2009,05,28,04,54,8.70
2009,05,28,04,55,8.60
2009,05,28,04,56,8.60
2009,05,28,04,57,8.60
2009,05,28,04,58,8.50
2009,05,28,04,59,8.50
2009,05,28,05,00,8.50
2009,05,28,05,01,8.40
2009,05,28,05,02,8.40
2009,05,28,05,03,8.40
2009,05,28,05,04,8.40
2009,05,28,05,05,8.40
2009,05,28,05,06,8.40
2009,05,28,05,07,8.40
2009,05,28,05,08,8.40
2009,05,28,05,09,8.30
2009,05,28,05,10,8.30
2009,05,28,05,11,8.30
2009,05,28,05,12,8.30
2009,05,28,05,13,8.30
2009,05,28,05,14,8.30
2009,05,28,05,15,8.30
2009,05,28,05,16,8.30
2009,05,28,05,17,8.20
2009,05,28,05,18,8.20
2009,05,28,05,19,8.20
2009,05,28,05,20,8.20
2009,05,28,05,21,8.20
2009,05,28,05,22,8.20
2009,05,28,05,23,8.10
2009,05,28,05,24,8.10
2009,05,28,05,25,8.10
2009,05,28,05,26,8.10
2009,05,28,05,27,8.10
2009,05,28,05,28,8.10
2009,05,28,05,29,8.10
2009,05,28,05,30,8.10
2009,05,28,05,31,8.10
2009,05,28,05,32,8.10
2009,05,28,05,33,8.10
2009,05,28,05,34,8.10
2009,05,28,05,35,8.10
2009,05,28,05,36,8.10
2009,05,28,05,37,8.10
2009,05,28,05,38,8.10
2009,05,28,05,39,8.10
2009,05,28,05,40,8.10
2009,05,28,05,41,8.10
2009,05,28,05,42,8.10
2009,05,28,05,43,8.10
2009,05,28,05,44,8.10
2009,05,28,05,45,8.10
2009,05,28,05,46,8.10
2009,05,28,05,47,8.10
2009,05,28,05,48,8.00
2009,05,28,05,49,8.00
2009,05,28,05,50,8.00
2009,05,28,05,51,8.00
2009,05,28,05,52,8.00
2009,05,28,05,53,8.00
2009,05,28,05,54,8.00
2009,05,28,05,55,8.00
2009,05,28,05,56,8.10
2009,05,28,05,57,8.10
2009,05,28,05,58,8.10
2009,05,28,05,59,8.10
2009,05,28,06,00,8.10
2009,05,28,06,01,8.10
2009,05,28,06,02,8.10
2009,05,28,06,03,8.10
2009,05,28,06,04,8.10
2009,05,28,06,05,8.10
2009,05,28,06,06,8.10
2009,05,28,06,07,8.10
2009,05,28,06,08,8.20
2009,05,28,06,09,8.20
2009,05,28,06,10,8.20
2009,05,28,06,11,8.20
2009,05,28,06,12,8.20
2009,05,28,06,13,8.30
2009,05,28,06,14,8.30
2009,05,28,06,15,8.40
2009,05,28,06,16,8.40
2009,05,28,06,17,8.50
2009,05,28,06,18,8.60
2009,05,28,06,19,8.70
2009,05,28,06,20,8.80
2009,05,28,06,21,8.90
2009,05,28,06,22,9.00
2009,05,28,06,23,9.10
2009,05,28,06,24,9.20
2009,05,28,06,25,9.30
2009,05,28,06,26,9.40
2009,05,28,06,27,9.50
2009,05,28,06,28,9.60
2009,05,28,06,29,9.70
2009,05,28,06,30,9.70
2009,05,28,06,31,9.70
2009,05,28,06,32,9.80
2009,05,28,06,33,9.90
2009,05,28,06,34,9.90
2009,05,28,06,35,10.00
2009,05,28,06,36,10.10
2009,05,28,06,37,10.20
2009,05,28,06,38,10.30
2009,05,28,06,39,10.40
2009,05,28,06,40,10.50
2009,05,28,06,41,10.60
2009,05,28,06,42,10.70
2009,05,28,06,43,10.80
2009,05,28,06,44,10.80
2009,05,28,06,45,10.90
2009,05,28,06,46,10.90
2009,05,28,06,47,10.90
2009,05,28,06,48,10.90
2009,05,28,06,49,10.90
2009,05,28,06,50,10.90
2009,05,28,06,51,10.90
2009,05,28,06,52,10.90
2009,05,28,06,53,10.90
2009,05,28,06,54,10.80
2009,05,28,06,55,10.80
2009,05,28,06,56,10.80
2009,05,28,06,57,10.80
2009,05,28,06,58,10.80
2009,05,28,06,59,10.90
2009,05,28,07,00,10.90
2009,05,28,07,01,11.00
2009,05,28,07,02,11.10
2009,05,28,07,03,11.10
2009,05,28,07,04,11.20
2009,05,28,07,05,11.20
2009,05,28,07,06,11.10
2009,05,28,07,07,11.10
2009,05,28,07,08,11.10
2009,05,28,07,09,11.10
2009,05,28,07,10,11.10
2009,05,28,07,11,11.10
2009,05,28,07,12,11.10
2009,05,28,07,13,11.10
2009,05,28,07,14,11.10
2009,05,28,07,15,11.10
2009,05,28,07,16,11.10
2009,05,28,07,17,11.10
2009,05,28,07,18,11.10
2009,05,28,07,19,11.10
2009,05,28,07,20,11.20
2009,05,28,07,21,11.20
2009,05,28,07,22,11.30
2009,05,28,07,23,11.30
2009,05,28,07,24,11.30
2009,05,28,07,25,11.20
2009,05,28,07,26,11.20
2009,05,28,07,27,11.20
2009,05,28,07,28,11.20
2009,05,28,07,29,11.20
2009,05,28,07,30,11.20
2009,05,28,07,31,11.10
2009,05,28,07,32,11.10
2009,05,28,07,33,11.00
2009,05,28,07,34,10.90
2009,05,28,07,35,10.90
2009,05,28,07,36,10.90
2009,05,28,07,37,10.80
2009,05,28,07,38,10.80
2009,05,28,07,39,10.80
2009,05,28,07,40,10.70
2009,05,28,07,41,10.60
2009,05,28,07,42,10.60
2009,05,28,07,43,10.60
2009,05,28,07,44,10.60
2009,05,28,07,45,10.60
2009,05,28,07,46,10.60
2009,05,28,07,47,10.60
2009,05,28,07,48,10.60
2009,05,28,07,49,10.70
2009,05,28,07,50,10.70
2009,05,28,07,51,10.70
2009,05,28,07,52,10.80
2009,05,28,07,53,10.90
2009,05,28,07,54,11.10
2009,05,28,07,55,11.10
2009,05,28,07,56,11.10
2009,05,28,07,57,11.20
2009,05,28,07,58,11.20
2009,05,28,07,59,11.30
2009,05,28,08,00,11.40
2009,05,28,08,01,11.50
2009,05,28,08,02,11.60
2009,05,28,08,03,11.70
2009,05,28,08,04,11.70
2009,05,28,08,05,11.70
2009,05,28,08,06,11.70
2009,05,28,08,07,11.70
2009,05,28,08,08,11.80
2009,05,28,08,09,11.70
2009,05,28,08,10,11.70
2009,05,28,08,11,11.70
2009,05,28,08,12,11.80
2009,05,28,08,13,11.80
2009,05,28,08,14,11.70
2009,05,28,08,15,11.70
2009,05,28,08,16,11.70
2009,05,28,08,17,11.80
2009,05,28,08,18,11.80
2009,05,28,08,19,11.80
2009,05,28,08,20,11.80
2009,05,28,08,21,11.90
2009,05,28,08,22,12.00
2009,05,28,08,23,12.10
2009,05,28,08,24,12.10
2009,05,28,08,25,12.10
2009,05,28,08,26,12.10
2009,05,28,08,27,12.10
2009,05,28,08,28,12.10
2009,05,28,08,29,12.10
2009,05,28,08,30,12.10
2009,05,28,08,31,12.20
2009,05,28,08,32,12.30
2009,05,28,08,33,12.40
2009,05,28,08,34,12.40
2009,05,28,08,35,12.50
2009,05,28,08,36,12.60
2009,05,28,08,37,12.60
2009,05,28,08,38,12.70
2009,05,28,08,39,12.80
2009,05,28,08,40,12.80
2009,05,28,08,41,12.80
2009,05,28,08,42,12.80
2009,05,28,08,43,12.70
2009,05,28,08,44,12.60
2009,05,28,08,45,12.60
2009,05,28,08,46,12.60
2009,05,28,08,47,12.60
2009,05,28,08,48,12.60
2009,05,28,08,49,12.70
2009,05,28,08,50,12.80
2009,05,28,08,51,12.90
2009,05,28,08,52,13.00
2009,05,28,08,53,13.10
2009,05,28,08,54,13.10
2009,05,28,08,55,13.20
2009,05,28,08,56,13.40
2009,05,28,08,57,13.50
2009,05,28,08,58,13.50
2009,05,28,08,59,13.40
2009,05,28,09,00,13.40
2009,05,28,09,01,13.30
2009,05,28,09,02,13.30
2009,05,28,09,03,13.30
2009,05,28,09,04,13.30
2009,05,28,09,05,13.20
2009,05,28,09,06,13.10
2009,05,28,09,07,13.10
2009,05,28,09,08,13.10
2009,05,28,09,09,13.10
2009,05,28,09,10,13.10
2009,05,28,09,11,13.10
2009,05,28,09,12,13.20
2009,05,28,09,13,13.20
2009,05,28,09,14,13.20
2009,05,28,09,15,13.20
2009,05,28,09,16,13.20
2009,05,28,09,17,13.30
2009,05,28,09,18,13.50
2009,05,28,09,19,13.50
2009,05,28,09,20,13.40
2009,05,28,09,21,13.30
2009,05,28,09,22,13.40
2009,05,28,09,23,13.50
2009,05,28,09,24,13.60
2009,05,28,09,25,13.70
2009,05,28,09,26,13.80
2009,05,28,09,27,13.80
2009,05,28,09,28,13.90
2009,05,28,09,29,13.90
2009,05,28,09,30,13.90
2009,05,28,09,31,14.00
2009,05,28,09,32,14.00
2009,05,28,09,33,14.00
2009,05,28,09,34,14.00
2009,05,28,09,35,13.90
2009,05,28,09,36,13.70
2009,05,28,09,37,13.70
2009,05,28,09,38,13.70
2009,05,28,09,39,13.60
2009,05,28,09,40,13.70
2009,05,28,09,41,13.60
2009,05,28,09,42,13.60
2009,05,28,09,43,13.50
2009,05,28,09,44,13.50
2009,05,28,09,45,13.60
2009,05,28,09,46,13.70
2009,05,28,09,47,13.70
2009,05,28,09,48,13.80
2009,05,28,09,49,13.80
2009,05,28,09,50,13.70
2009,05,28,09,51,13.70
2009,05,28,09,52,13.60
2009,05,28,09,53,13.60
2009,05,28,09,54,13.60
2009,05,28,09,55,13.70
2009,05,28,09,56,13.70
2009,05,28,09,57,13.70
2009,05,28,09,58,13.70
2009,05,28,09,59,13.80
2009,05,28,10,00,13.80
2009,05,28,10,01,13.80
2009,05,28,10,02,13.70
2009,05,28,10,03,13.70
2009,05,28,10,04,13.70
2009,05,28,10,05,13.70
2009,05,28,10,06,13.70
2009,05,28,10,07,13.70
2009,05,28,10,08,13.70
2009,05,28,10,09,13.80
2009,05,28,10,10,13.90
2009,05,28,10,11,13.90
2009,05,28,10,12,13.90
2009,05,28,10,13,13.90
2009,05,28,10,14,14.00
2009,05,28,10,15,14.00
2009,05,28,10,16,14.20
2009,05,28,10,17,14.20
2009,05,28,10,18,14.10
2009,05,28,10,19,14.10
2009,05,28,10,20,14.10
2009,05,28,10,21,14.10
2009,05,28,10,22,14.00
2009,05,28,10,23,13.90
2009,05,28,10,24,13.80
2009,05,28,10,25,13.70
2009,05,28,10,26,13.80
2009,05,28,10,27,13.80
2009,05,28,10,28,13.80
2009,05,28,10,29,13.60
2009,05,28,10,30,13.50
2009,05,28,10,31,13.40
2009,05,28,10,32,13.30
2009,05,28,10,33,13.20
2009,05,28,10,34,13.20
2009,05,28,10,35,13.10
2009,05,28,10,36,13.10
2009,05,28,10,37,13.10
2009,05,28,10,38,13.00
2009,05,28,10,39,12.90
2009,05,28,10,40,12.80
2009,05,28,10,41,12.80
2009,05,28,10,42,12.90
2009,05,28,10,43,13.00
2009,05,28,10,44,13.00
2009,05,28,10,45,13.10
2009,05,28,10,46,13.20
2009,05,28,10,47,13.30
2009,05,28,10,48,13.30
2009,05,28,10,49,13.30
2009,05,28,10,50,13.30
2009,05,28,10,51,13.30
2009,05,28,10,52,13.40
2009,05,28,10,53,13.30
2009,05,28,10,54,13.30
2009,05,28,10,55,13.30
2009,05,28,10,56,13.30
2009,05,28,10,57,13.30
2009,05,28,10,58,13.30
2009,05,28,10,59,13.30
2009,05,28,11,00,13.40
2009,05,28,11,01,13.50
2009,05,28,11,02,13.60
2009,05,28,11,03,13.60
2009,05,28,11,04,13.50
2009,05,28,11,05,13.40
2009,05,28,11,06,13.20
2009,05,28,11,07,13.10
2009,05,28,11,08,13.10
2009,05,28,11,09,13.20
2009,05,28,11,10,13.30
2009,05,28,11,11,13.40
2009,05,28,11,12,13.40
2009,05,28,11,13,13.50
2009,05,28,11,14,13.60
2009,05,28,11,15,13.50
2009,05,28,11,16,13.50
2009,05,28,11,17,13.50
2009,05,28,11,18,13.50
2009,05,28,11,19,13.60
2009,05,28,11,20,13.70
2009,05,28,11,21,13.70
2009,05,28,11,22,13.80
2009,05,28,11,23,13.80
2009,05,28,11,24,13.90
2009,05,28,11,25,13.90
2009,05,28,11,26,14.00
2009,05,28,11,27,14.00
2009,05,28,11,28,13.90
2009,05,28,11,29,13.90
2009,05,28,11,30,14.00
2009,05,28,11,31,14.00
2009,05,28,11,32,14.00
2009,05,28,11,33,14.00
2009,05,28,11,34,13.90
2009,05,28,11,35,13.80
2009,05,28,11,36,13.80
2009,05,28,11,37,14.00
2009,05,28,11,38,14.00
2009,05,28,11,39,13.90
2009,05,28,11,40,13.90
2009,05,28,11,41,13.90
2009,05,28,11,42,13.90
2009,05,28,11,43,13.70
2009,05,28,11,44,13.60
2009,05,28,11,45,13.60
2009,05,28,11,46,13.60
2009,05,28,11,47,13.70
2009,05,28,11,48,13.70
2009,05,28,11,49,13.70
2009,05,28,11,50,13.70
2009,05,28,11,51,13.70
2009,05,28,11,52,13.70
2009,05,28,11,53,13.70
2009,05,28,11,54,13.90
2009,05,28,11,55,14.00
2009,05,28,11,56,14.00
2009,05,28,11,57,14.00
2009,05,28,11,58,14.20
2009,05,28,11,59,14.30
2009,05,28,12,00,14.20
2009,05,28,12,01,14.20
2009,05,28,12,02,14.10
2009,05,28,12,03,14.10
2009,05,28,12,04,14.20
2009,05,28,12,05,14.20
2009,05,28,12,06,14.20
2009,05,28,12,07,14.30
2009,05,28,12,08,14.20
2009,05,28,12,09,14.20
2009,05,28,12,10,14.30
2009,05,28,12,11,14.30
2009,05,28,12,12,14.40
2009,05,28,12,13,14.50
2009,05,28,12,14,14.50
2009,05,28,12,15,14.60
2009,05,28,12,16,14.70
2009,05,28,12,17,14.80
2009,05,28,12,18,14.80
2009,05,28,12,19,14.80
2009,05,28,12,20,14.80
2009,05,28,12,21,14.80
2009,05,28,12,22,14.90
2009,05,28,12,23,14.90
2009,05,28,12,24,14.90
2009,05,28,12,25,14.80
2009,05,28,12,26,14.80
2009,05,28,12,27,14.80
2009,05,28,12,28,14.70
2009,05,28,12,29,14.70
2009,05,28,12,30,14.70
2009,05,28,12,31,14.70
2009,05,28,12,32,14.80
2009,05,28,12,33,14.90
2009,05,28,12,34,14.80
2009,05,28,12,35,14.80
2009,05,28,12,36,14.80
2009,05,28,12,37,14.80
2009,05,28,12,38,14.80
2009,05,28,12,39,14.90
2009,05,28,12,40,15.10
2009,05,28,12,41,15.20
2009,05,28,12,42,15.10
2009,05,28,12,43,15.10
2009,05,28,12,44,15.20
2009,05,28,12,45,15.30
2009,05,28,12,46,15.30
2009,05,28,12,47,15.30
2009,05,28,12,48,15.40
2009,05,28,12,49,15.30
2009,05,28,12,50,15.30
2009,05,28,12,51,15.30
2009,05,28,12,52,15.30
2009,05,28,12,53,15.20
2009,05,28,12,54,15.20
2009,05,28,12,55,15.30
2009,05,28,12,56,15.30
2009,05,28,12,57,15.40
2009,05,28,12,58,15.40
2009,05,28,12,59,15.30
2009,05,28,13,00,15.30
2009,05,28,13,01,15.30
2009,05,28,13,02,15.20
2009,05,28,13,03,15.30
2009,05,28,13,04,15.30
2009,05,28,13,05,15.30
2009,05,28,13,06,15.30
2009,05,28,13,07,15.30
2009,05,28,13,08,15.30
2009,05,28,13,09,15.40
2009,05,28,13,10,15.50
2009,05,28,13,11,15.50
2009,05,28,13,12,15.50
2009,05,28,13,13,15.50
2009,05,28,13,14,15.50
2009,05,28,13,15,15.60
2009,05,28,13,16,15.60
2009,05,28,13,17,15.60
2009,05,28,13,18,15.50
2009,05,28,13,19,15.50
2009,05,28,13,20,15.40
2009,05,28,13,21,15.30
2009,05,28,13,22,15.30
2009,05,28,13,23,15.30
2009,05,28,13,24,15.40
2009,05,28,13,25,15.50
2009,05,28,13,26,15.50
2009,05,28,13,27,15.50
2009,05,28,13,28,15.60
2009,05,28,13,29,15.60
2009,05,28,13,30,15.50
2009,05,28,13,31,15.50
2009,05,28,13,32,15.50
2009,05,28,13,33,15.40
2009,05,28,13,34,15.50
2009,05,28,13,35,15.50
2009,05,28,13,36,15.50
2009,05,28,13,37,15.40
2009,05,28,13,38,15.30
2009,05,28,13,39,15.30
2009,05,28,13,40,15.20
2009,05,28,13,41,15.20
2009,05,28,13,42,15.10
2009,05,28,13,43,15.10
2009,05,28,13,44,15.20
2009,05,28,13,45,15.30
2009,05,28,13,46,15.20
2009,05,28,13,47,15.30
2009,05,28,13,48,15.30
2009,05,28,13,49,15.10
2009,05,28,13,50,15.10
2009,05,28,13,51,15.10
2009,05,28,13,52,15.20
2009,05,28,13,53,15.30
2009,05,28,13,54,15.30
2009,05,28,13,55,15.40
2009,05,28,13,56,15.50
2009,05,28,13,57,15.50
2009,05,28,13,58,15.50
2009,05,28,13,59,15.50
2009,05,28,14,00,15.50
2009,05,28,14,01,15.50
2009,05,28,14,02,15.50
2009,05,28,14,03,15.60
2009,05,28,14,04,15.60
2009,05,28,14,05,15.60
2009,05,28,14,06,15.60
2009,05,28,14,07,15.60
2009,05,28,14,08,15.60
2009,05,28,14,09,15.50
2009,05,28,14,10,15.40
2009,05,28,14,11,15.30
2009,05,28,14,12,15.30
2009,05,28,14,13,15.30
2009,05,28,14,14,15.40
2009,05,28,14,15,15.60
2009,05,28,14,16,15.60
2009,05,28,14,17,15.60
2009,05,28,14,18,15.60
2009,05,28,14,19,15.60
2009,05,28,14,20,15.60
2009,05,28,14,21,15.70
2009,05,28,14,22,15.70
2009,05,28,14,23,15.70
2009,05,28,14,24,15.70
2009,05,28,14,25,15.70
2009,05,28,14,26,15.80
2009,05,28,14,27,15.80
2009,05,28,14,28,15.80
2009,05,28,14,29,15.80
2009,05,28,14,30,15.80
2009,05,28,14,31,15.80
2009,05,28,14,32,15.80
2009,05,28,14,33,15.90
2009,05,28,14,34,16.00
2009,05,28,14,35,16.10
2009,05,28,14,36,16.20
2009,05,28,14,37,16.20
2009,05,28,14,38,16.20
2009,05,28,14,39,16.20
2009,05,28,14,40,16.20
2009,05,28,14,41,16.20
2009,05,28,14,42,16.20
2009,05,28,14,43,16.30
2009,05,28,14,44,16.30
2009,05,28,14,45,16.40
2009,05,28,14,46,16.40
2009,05,28,14,47,16.40
2009,05,28,14,48,16.30
2009,05,28,14,49,16.30
2009,05,28,14,50,16.40
2009,05,28,14,51,16.40
2009,05,28,14,52,16.40
2009,05,28,14,53,16.30
2009,05,28,14,54,16.30
2009,05,28,14,55,16.30
2009,05,28,14,56,16.20
2009,05,28,14,57,16.10
2009,05,28,14,58,16.10
2009,05,28,14,59,16.20
2009,05,28,15,00,16.30
2009,05,28,15,01,16.40
2009,05,28,15,02,16.40
2009,05,28,15,03,16.40
2009,05,28,15,04,16.40
2009,05,28,15,05,16.40
2009,05,28,15,06,16.40
2009,05,28,15,07,16.40
2009,05,28,15,08,16.50
2009,05,28,15,09,16.70
2009,05,28,15,10,16.80
2009,05,28,15,11,16.90
2009,05,28,15,12,16.80
2009,05,28,15,13,16.90
2009,05,28,15,14,16.90
2009,05,28,15,15,16.80
2009,05,28,15,16,16.80
2009,05,28,15,17,16.90
2009,05,28,15,18,16.90
2009,05,28,15,19,16.90
2009,05,28,15,20,16.80
2009,05,28,15,21,16.70
2009,05,28,15,22,16.70
2009,05,28,15,23,16.70
2009,05,28,15,24,16.70
2009,05,28,15,25,16.70
2009,05,28,15,26,16.70
2009,05,28,15,27,16.60
2009,05,28,15,28,16.60
2009,05,28,15,29,16.70
2009,05,28,15,30,16.60
2009,05,28,15,31,16.60
2009,05,28,15,32,16.60
2009,05,28,15,33,16.60
2009,05,28,15,34,16.60
2009,05,28,15,35,16.60
2009,05,28,15,36,16.70
2009,05,28,15,37,16.70
2009,05,28,15,38,16.70
2009,05,28,15,39,16.80
2009,05,28,15,40,16.90
2009,05,28,15,41,16.90
2009,05,28,15,42,17.00
2009,05,28,15,43,17.10
2009,05,28,15,44,17.10
2009,05,28,15,45,17.10
2009,05,28,15,46,17.20
2009,05,28,15,47,17.30
2009,05,28,15,48,17.30
2009,05,28,15,49,17.10
2009,05,28,15,50,17.00
2009,05,28,15,51,17.00
2009,05,28,15,52,17.00
2009,05,28,15,53,17.00
2009,05,28,15,54,17.10
2009,05,28,15,55,17.20
2009,05,28,15,56,17.30
2009,05,28,15,57,17.30
2009,05,28,15,58,17.30
2009,05,28,15,59,17.20
2009,05,28,16,00,17.20
2009,05,28,16,01,17.20
2009,05,28,16,02,17.30
2009,05,28,16,03,17.30
2009,05,28,16,04,17.30
2009,05,28,16,05,17.30
2009,05,28,16,06,17.40
2009,05,28,16,07,17.50
2009,05,28,16,08,17.50
2009,05,28,16,09,17.40
2009,05,28,16,10,17.30
2009,05,28,16,11,17.30
2009,05,28,16,12,17.30
2009,05,28,16,13,17.30
2009,05,28,16,14,17.30
2009,05,28,16,15,17.40
2009,05,28,16,16,17.50
2009,05,28,16,17,17.60
2009,05,28,16,18,17.60
2009,05,28,16,19,17.50
2009,05,28,16,20,17.50
2009,05,28,16,21,17.50
2009,05,28,16,22,17.60
2009,05,28,16,23,17.60
2009,05,28,16,24,17.70
2009,05,28,16,25,17.70
2009,05,28,16,26,17.70
2009,05,28,16,27,17.60
2009,05,28,16,28,17.60
2009,05,28,16,29,17.60
2009,05,28,16,30,17.60
2009,05,28,16,31,17.60
2009,05,28,16,32,17.60
2009,05,28,16,33,17.60
2009,05,28,16,34,17.60
2009,05,28,16,35,17.60
2009,05,28,16,36,17.60
2009,05,28,16,37,17.60
2009,05,28,16,38,17.70
2009,05,28,16,39,17.70
2009,05,28,16,40,17.70
2009,05,28,16,41,17.80
2009,05,28,16,42,17.90
2009,05,28,16,43,18.00
2009,05,28,16,44,18.00
2009,05,28,16,45,17.90
2009,05,28,16,46,17.90
2009,05,28,16,47,17.90
2009,05,28,16,48,17.80
2009,05,28,16,49,17.80
2009,05,28,16,50,17.80
2009,05,28,16,51,17.80
2009,05,28,16,52,17.80
2009,05,28,16,53,17.90
2009,05,28,16,54,17.90
2009,05,28,16,55,18.00
2009,05,28,16,56,18.10
2009,05,28,16,57,18.10
2009,05,28,16,58,18.00
2009,05,28,16,59,17.90
2009,05,28,17,00,17.90
2009,05,28,17,01,17.90
2009,05,28,17,02,17.90
2009,05,28,17,03,17.90
2009,05,28,17,04,17.90
2009,05,28,17,05,17.90
2009,05,28,17,06,17.90
2009,05,28,17,07,17.90
2009,05,28,17,08,17.80
2009,05,28,17,09,17.80
2009,05,28,17,10,17.80
2009,05,28,17,11,17.90
2009,05,28,17,12,17.90
2009,05,28,17,13,17.90
2009,05,28,17,14,17.90
2009,05,28,17,15,17.90
2009,05,28,17,16,17.90
2009,05,28,17,17,17.80
2009,05,28,17,18,17.80
2009,05,28,17,19,17.80
2009,05,28,17,20,17.80
2009,05,28,17,21,17.80
2009,05,28,17,22,17.80
2009,05,28,17,23,17.90
2009,05,28,17,24,17.90
2009,05,28,17,25,17.90
2009,05,28,17,26,17.90
2009,05,28,17,27,18.00
2009,05,28,17,28,18.10
2009,05,28,17,29,18.20
2009,05,28,17,30,18.20
2009,05,28,17,31,18.20
2009,05,28,17,32,18.20
2009,05,28,17,33,18.20
2009,05,28,17,34,18.30
2009,05,28,17,35,18.30